Location: Spasovo
(48.4155°N, 33.0557°E)
Time: 04:04:36
(UTC+00:00)

Daily predictions for brighter satellites

Satellite Brightness Start Highest point End
(mag) Time Altitude Azimuth Time Altitude Azimuth Time Altitude Azimuth
USA 234 3.9 00:30:57 10° NE 00:35:49 49° NNE 00:35:49 49° NNE
ADEOS Rocket 3.9 00:55:29 10° SE 01:00:32 40° ENE 01:05:42 10° N
Tsikada Rocket 4.3 01:01:35 60° NE 01:01:35 60° NE 01:06:45 10° NNE
ADEOS II 4.3 01:00:28 10° N 01:01:36 16° N 01:01:36 16° N
Cosmos 2344 4.0 01:05:50 44° SSE 01:07:44 54° ESE 01:15:24 10° NE
ARIANE 5 R/B 4.1 01:24:15 10° N 01:26:20 25° N 01:26:20 25° N
Meteor 1-21 4.1 01:35:08 78° N 01:35:08 78° N 01:40:23 10° N
CENTAUR R/B 3.4 01:33:31 26° S 01:36:28 44° ESE 01:42:58 10° NE
MSX 3.7 01:33:01 10° NNE 01:38:36 76° NW 01:38:36 76° NW
Cosmos 1331 Rocket 4.0 01:39:11 61° N 01:40:01 77° ENE 01:45:14 10° SSE
Cosmos 1356 Rocket 3.9 01:46:21 51° NNE 01:47:08 61° ENE 01:51:17 10° SSE
CZ-4B R/B 3.4 01:44:27 10° SE 01:47:31 30° ENE 01:50:35 10° N
GP-B 3.3 01:47:31 61° SE 01:48:04 70° E 01:52:30 10° N
Cosmos 1656 4.1 01:45:11 13° NNW 01:50:21 62° ENE 01:56:00 10° SE
IDEFIX/ARIANE 42P 3.7 01:49:34 10° N 01:52:39 30° NNW 01:52:39 30° NNW
Abrixas rocket 4.4 01:58:24 22° E 01:58:24 22° E 01:59:35 10° E
Cosmos 1697 Rocket 3.8 01:53:24 10° NNW 01:58:47 43° NE 02:04:09 10° SE
USA 238 DEB 3.6 01:57:47 38° SSW 02:00:37 84° SE 02:07:34 10° NE
USA 238 3.6 01:57:51 37° SSW 02:00:43 83° SE 02:07:40 10° NE
Cosmos 2279 Rocket 3.8 01:55:45 10° N 02:01:59 84° W 02:08:11 10° S
Cosmos 1634 Rocket 4.0 01:57:39 10° NNW 02:03:48 54° W 02:09:54 10° SSW
Cosmos 1110 Rocket 3.9 02:04:58 62° WSW 02:05:03 62° WSW 02:10:08 10° S
Cosmos 292 Rocket 3.6 02:03:46 34° NNW 02:05:57 85° WSW 02:10:48 10° SSE
NOSS 3-2 (A) 3.3 02:04:16 46° SW 02:06:11 84° NW 02:12:50 10° NE
PAYLOAD A 3.9 02:01:31 10° NNE 02:06:33 78° WNW 02:08:41 36° SSW
Cosmos 1048 Rocket 4.0 02:06:29 56° W 02:06:52 58° WNW 02:12:11 10° NNE
Cosmos 1302 Rocket 4.2 02:02:45 10° NNW 02:08:05 71° ENE 02:13:21 10° SSE
Cosmos 44 Rocket 3.5 02:05:59 30° NNW 02:08:34 73° NE 02:13:44 10° SE
CZ-3B R/B 4.1 02:06:08 32° WNW 02:09:45 87° SW 02:41:53 10° SE
Cosmos 1025 Rocket 2.9 02:08:55 55° SSW 02:09:51 83° W 02:14:18 10° N
CREW DRAGON DEMO-1 DEB 4.2 02:13:31 35° NE 02:13:31 35° NE 02:15:37 10° ENE
COSMO-SKYMED 1 4.1 02:12:46 10° SE 02:16:44 36° ENE 02:20:44 10° N
Geosat 3.9 02:13:05 10° SSE 02:18:02 61° WSW 02:20:21 31° NW
FENGYUN 3A 4.2 02:13:30 10° NNE 02:18:53 59° E 02:24:14 10° S
Cosmos 1980 Rocket 3.7 02:14:22 10° NNW 02:19:30 35° NE 02:24:37 10° ESE
USA 234 4.0 02:13:47 10° ENE 02:19:52 43° N 02:23:09 25° WNW
ATLAS 3B R/B 4.4 02:15:06 10° S 02:20:38 30° ESE 02:26:13 10° NE
BREEZE-M DEB (TANK) 4.2 02:19:07 40° WSW 02:20:50 57° SSW 02:35:17 10° SE
Cosmos 494 Rocket 4.0 02:20:42 38° SW 02:22:36 63° WNW 02:27:52 10° NNE
Lacrosse 4 Rocket 2.1 02:20:33 17° S 02:23:27 50° ESE 02:27:23 10° NE
CZ-2C R/B 2.4 02:18:48 10° N 02:23:48 61° WNW 02:26:22 27° SW
Cosmos 1953 4.2 02:32:19 17° SSW 02:32:19 17° SSW 02:33:25 10° SSW
ISS -1.0 02:32:23 10° S 02:34:29 16° SE 02:36:33 10° E
Cosmos 1908 3.1 02:33:12 10° NNW 02:37:05 65° W 02:40:57 10° S
Cosmos 1536 Rocket 3.6 02:34:08 12° SSW 02:38:15 59° WNW 02:42:42 10° N
ALOS 2.2 02:37:42 10° NNE 02:42:24 89° WNW 02:47:05 10° SSW
deb Chang Zheng 4 3.5 02:39:17 10° NNE 02:43:34 85° ESE 02:47:49 10° SSW
CZ-4B R/B 4.2 02:40:14 10° NNE 02:44:00 42° E 02:47:55 10° S
KORONAS-FOTON 3.8 02:41:01 10° SSW 02:44:53 60° WNW 02:48:46 10° N
ADEOS Rocket 3.3 02:41:19 10° SSW 02:46:13 33° W 02:51:12 10° NNW
Cosmos 1992 Rocket 4.3 02:46:27 10° NNW 02:51:41 69° ENE 02:56:52 10° SSE
Meteor 1-24 Rocket 4.4 02:47:06 10° S 02:52:33 58° E 02:58:13 10° NNE
Cosmos 220 Rocket 4.2 02:50:48 10° NNW 02:55:17 76° ENE 02:59:43 10° SSE
ERS-2 2.9 02:52:11 10° SSW 02:55:24 29° W 02:55:53 28° W
Cosmos 1484 Rocket 2.8 02:56:33 10° N 03:00:22 53° WNW 03:04:07 10° SSW
Cosmos 1833 Rocket 2.8 02:56:08 10° SSW 03:01:46 82° ESE 03:07:27 10° NNE
Cosmos 1300 2.7 02:59:13 10° N 03:03:04 82° E 03:06:53 10° S
Cosmos 2369 3.6 02:58:21 10° NNW 03:04:02 81° WSW 03:09:42 10° SSE
SKYMED 2 3.5 03:00:21 10° S 03:04:42 78° WSW 03:09:04 10° NNW
NOSS 3-2 (C) 3.5 02:59:48 14° WSW 03:04:46 62° NW 03:11:27 10° NE
Cosmos 1689 Rocket 1.9 03:04:01 10° S 03:06:56 66° WSW 03:09:52 10° NNW
Cosmos 1092 Rocket 4.1 03:01:06 10° S 03:07:15 83° E 03:13:30 10° N
Meteor 2-5 Rocket 3.7 03:01:42 10° SSW 03:07:22 87° W 03:13:13 10° N
Aureole 3 3.9 03:05:41 10° N 03:09:23 64° E 03:14:02 10° SSE
SAR-Lupe-4 4.0 03:06:12 10° S 03:09:34 39° W 03:12:58 10° NNW
CZ-3 R/B 4.2 02:54:09 10° WSW 03:09:48 25° SSW 03:16:10 10° SE
CZ-4B R/B 4.0 03:06:17 10° N 03:10:33 59° WNW 03:14:36 10° SSW
Cosmos 967 Rocket 4.4 03:04:21 10° NW 03:10:42 84° SW 03:16:58 10° SSE
ARGOS Delta rocket 4.1 03:07:53 10° N 03:13:12 77° WNW 03:18:40 10° SSW
Lacrosse 5 rocket 2.1 03:11:03 10° SSW 03:14:33 46° SE 03:18:13 10° ENE
Cosmos 2082 Rocket 2.7 03:10:17 10° SSW 03:15:48 62° ESE 03:21:22 10° NNE
Nadezhda 4 Rocket 4.0 03:10:00 10° SSW 03:15:58 56° WNW 03:22:01 10° N
H-2A R/B 4.3 03:13:25 10° NNE 03:17:35 38° E 03:21:37 10° SSE
Cosmos 1674 3.7 03:14:25 10° SW 03:17:38 25° WNW 03:20:52 10° NNW
H-2A R/B 4.0 03:14:18 10° NNE 03:17:58 45° E 03:21:38 10° S
CZ-4B R/B 2.8 03:17:08 10° SW 03:19:48 20° W 03:22:29 10° NW
SL-16 R/B 3.8 03:16:42 10° NNW 03:21:52 34° NE 03:26:59 10° ESE
Cosmos 2344 4.0 03:15:53 13° W 03:22:23 45° NNW 03:30:36 10° NE
Meteor 1-31 Rocket 3.2 03:19:53 10° N 03:23:36 40° WNW 03:27:18 10° SW
ADEOS 4.0 03:19:00 10° N 03:23:53 41° WNW 03:28:44 10° SW
CENTAUR R/B 2.9 03:21:00 10° WSW 03:27:03 52° NW 03:34:14 10° NE
COSMOS 2406 3.3 03:22:33 10° SW 03:28:06 54° NW 03:33:40 10° NNE
Meteor 2-10 Rocket 4.1 03:23:26 10° N 03:28:23 58° ENE 03:33:21 10° SSE
SL-19 R/B 4.3 03:26:34 10° N 03:29:09 30° WNW 03:31:40 10° SW
METEOR-M 4.4 03:24:18 10° N 03:29:26 47° WNW 03:34:31 10° SW
PSLV R/B 4.5 03:26:50 10° NNE 03:30:56 63° ESE 03:35:00 10° S
Abrixas rocket 1.8 03:29:34 14° W 03:31:53 76° S 03:34:43 10° ESE
Cosmos 1726 Rocket 3.8 03:29:55 10° NNW 03:34:13 49° W 03:38:31 10° SSW
Cosmos 1626 2.7 03:31:54 10° SW 03:35:16 33° WNW 03:38:41 10° N
SJ-12 4.2 03:31:48 10° N 03:35:46 47° WNW 03:39:43 10° SW
Cosmos 1461 3.3 03:35:27 10° SSW 03:39:59 83° SE 03:44:44 10° NE
MOS 1 Rocket 3.3 03:38:15 10° SSE 03:42:33 75° ENE 03:46:50 10° N
Cosmos 1697 Rocket 3.3 03:37:34 10° NW 03:42:41 36° WSW 03:47:48 10° S
Cosmos 1400 Rocket 3.1 03:40:33 10° NNW 03:44:22 45° W 03:48:06 10° SSW
Spot 2 4.2 03:43:08 10° NNE 03:47:33 84° WNW 03:52:14 10° SSW
Cosmos 1606 Rocket 4.4 03:44:24 10° NNW 03:48:17 29° W 03:52:07 10° SSW
CREW DRAGON DEMO-1 DEB 3.3 03:45:34 10° WNW 03:48:33 52° NNE 03:51:30 10° E
SJ-7 4.4 03:45:46 10° NNE 03:49:50 89° NW 03:53:50 10° SSW
Meteor PRIRODA 4.1 03:46:48 10° N 03:50:13 38° WNW 03:53:37 10° SW
Cosmos 2360 Rocket 4.0 03:47:11 10° NNW 03:52:01 28° NE 03:56:49 10° ESE
USA 238 DEB 4.5 03:46:14 10° W 03:52:20 35° NNW 03:58:41 10° NE
USA 238 4.5 03:46:19 10° W 03:52:24 35° NNW 03:58:47 10° NE
